Bloemfontein, South Africa

3:00 AM SAST on December 11, 2017 (GMT +0200)
Bloemfontein

Weather History for FABL - January, 2013

Change the Weather History Date:

Thursday, January 31, 2013

  Actual Average Record
Temperature  
Mean Temperature 72 °F -  
Max Temperature 85 °F 83 °F 95 °F (2016)
Min Temperature 58 °F 56 °F 57 °F (2017)
Cooling Degree Days 6    
Growing Degree Days 22 (Base 50)    
Moisture  
Dew Point 55 °F    
Average Humidity 60    
Maximum Humidity 94    
Minimum Humidity 22    
Precipitation  
Precipitation 0.00 in 0.15 in - ()
Sea Level Pressure  
Sea Level Pressure 30.08 in    
Wind  
Wind Speed 5 mph ()    
Max Wind Speed 15 mph    
Max Gust Speed -    
Visibility 9.4 miles    
Events      
Averages and records for this station are not official NWS values.
T = Trace of Precipitation, MM = Missing Value Source: Averaged Metar Reports

Daily Weather History Graph

Daily Weather History Graph

Search for Another Location

Airport or City:

Trip Planner

Search our weather history database for the weather conditions in past years. The results will help you decide how hot, cold, wet, or windy it might be!

Date:

Astronomy

Jan. 31, 2013 Rise Set
Actual Time 5:44 AM SAST 7:12 PM SAST
Civil Twilight 5:18 AM SAST 7:37 PM SAST
Nautical Twilight 4:48 AM SAST 8:07 PM SAST
Astronomical Twilight 4:16 AM SAST 8:39 PM SAST
Moon 9:37 PM SAST (1/31) 9:35 AM SAST (1/31)
Length of Visible Light 14h 18m
Length of Day
13h 27m
Waning Gibbous, 82% of the Moon is Illuminated
Jan 31
Waning Gibbous
Feb 3
Last Quarter
Feb 10
New
Feb 17
First Quarter
Feb 25
Full

Hourly Weather History & Observations

Time (SAST) Temp. Heat Index Dew Point Humidity Pressure Visibility Wind Dir Wind Speed Gust Speed Precip Events Conditions
12:00 AM 62.6 °F - 59.0 °F 88% 30.06 in - East 2.3 mph - N/A   Unknown
1:00 AM 60.8 °F - 59.0 °F 94% 30.06 in - Calm Calm - N/A   Unknown
2:00 AM 61 °F - 60 °F 93%  in - SE 2.3 mph - -  
2:00 AM 60.8 °F - 59.0 °F 94% 30.06 in - SE 1.2 mph - N/A   Unknown
3:00 AM 59.0 °F - 57.2 °F 94% 30.06 in - SSE 2.3 mph - N/A   Unknown
4:00 AM 59.0 °F - 57.2 °F 94% 30.06 in - SW 2.3 mph - N/A   Unknown
5:00 AM 59 °F - 57 °F 91%  in 19 mi SSE 3.5 mph - -  
5:00 AM 59.0 °F - 55.4 °F 88% 30.06 in - SSE 2.3 mph - N/A   Clear
6:00 AM 59.0 °F - 55.4 °F 88% 30.06 in - South 4.6 mph - N/A   Clear
7:00 AM 62.6 °F - 57.2 °F 82% 30.09 in - South 4.6 mph - N/A   Clear
8:00 AM 68 °F - 61 °F 72%  in 25 mi SE 3.5 mph - -  
8:00 AM 66.2 °F - 60.8 °F 83% 30.12 in - SE 3.5 mph - N/A   Clear
9:00 AM 69.8 °F - 60.8 °F 73% 30.12 in 6.2 mi SSE 6.9 mph - N/A   Partly Cloudy
10:00 AM 73.4 °F - 57.2 °F 57% 30.09 in 6.2 mi South 8.1 mph - N/A   Partly Cloudy
11:00 AM 77 °F - 54 °F 35%  in 25 mi SSE 5.8 mph - -   Scattered Clouds
11:00 AM 77.0 °F - 53.6 °F 44% 30.09 in 6.2 mi SSE 4.6 mph - N/A   Partly Cloudy
12:00 PM 77.0 °F - 55.4 °F 47% 30.09 in 6.2 mi SE 8.1 mph - N/A   Partly Cloudy
1:00 PM 80.6 °F 80.5 °F 55.4 °F 42% 30.06 in 6.2 mi ESE 9.2 mph - N/A   Scattered Clouds
2:00 PM 82 °F - 53 °F 26%  in 19 mi SE 8.1 mph - -   Partly Cloudy
2:00 PM 80.6 °F - 51.8 °F 37% 30.06 in 6.2 mi SE 8.1 mph - N/A   Scattered Clouds
3:00 PM 82.4 °F - 51.8 °F 35% 30.04 in 6.2 mi SSE 9.2 mph - N/A   Scattered Clouds
4:00 PM 82.4 °F 81.4 °F 53.6 °F 37% 30.04 in 6.2 mi SE 10.4 mph - N/A   Scattered Clouds
5:00 PM 83 °F - 50 °F 22%  in 19 mi SSE 10.4 mph - -   Partly Cloudy
5:00 PM 82.4 °F - 50.0 °F 32% 30.06 in 6.2 mi SSE 10.4 mph - N/A   Scattered Clouds
6:00 PM 82.4 °F 81.4 °F 53.6 °F 37% 30.04 in 6.2 mi South 10.4 mph - N/A   Partly Cloudy
7:00 PM 78.8 °F - 53.6 °F 42% 30.06 in 6.2 mi South 15.0 mph - N/A   Partly Cloudy
8:00 PM 74 °F - 51 °F 34%  in 19 mi SSE 13.8 mph - -   Scattered Clouds
8:00 PM 73.4 °F - 50.0 °F 44% 30.09 in - SSE 12.7 mph - N/A   Clear
9:00 PM 71.6 °F - 51.8 °F 50% 30.12 in 6.2 mi SSE 15.0 mph - N/A   Unknown
10:00 PM 68.0 °F - 51.8 °F 56% 30.12 in - SSE 10.4 mph - N/A   Unknown
11:00 PM 66 °F - 53 °F 52%  in - SSE 10.4 mph - -  
11:00 PM 66.2 °F - 51.8 °F 60% 30.15 in - SSE 9.2 mph - N/A   Unknown